Find Starlink 4553

NORAD ID: 53577 Int'l Des: 2022-101 Owner: SPXS Country: US Constellation: starlink operational
LEOCIRCULAR

实时位置

正在加载3D地球...

关于 Starlink 4553

正在加载描述...

即将过境

Passes for default location (London). Set your location on the main map for personalized predictions.

高度历史

Loading altitude history...

两行轨道根数

1 53577U 22101BC 26130.19326492 -.00000269 00000-0 11656-5 0 9993
2 53577 53.2162 137.7693 0001366 72.4064 287.7077 15.08835335206550
Epoch: May 10, 2026 • Age: 8 hours

当前状态

高度 551.2 km
速度 7.59 km/s
星下点 -34.75°S, 51.14°E
发射日期 Aug 19, 2022
运行时间 3.7 years
类型 internet

技术详情

分类 Payload
质量 300.00 kg
干质量 290.00 kg
总质量 300.00 kg
长度 0.20 m
直径 2.80 m
跨度 9.00 m
形状 Box + pan
制造商 SPXS
平台类型 Starlink
阶段状态 In Orbit
所有者/国家 SPXS/US

Most Searched